Tracking 27112 objects as of 26-Mar-2023
HD Live streaming from Space Station
objects crossing your sky now

STARLINK-4091

Track STARLINK-4091 now!
10-day predictions
STARLINK-4091 is classified as:


NORAD ID: 52830
Int'l Code: 2022-062A
Perigee: 545.9 km
Apogee: 547.9 km
Inclination: 53.2 °
Period: 95.4 minutes
Semi major axis: 6917 km
RCS: Unknown
Launch date: June 17, 2022
Source: United States (US)
Launch site: AIR FORCE EASTERN TEST RANGE (AFETR)
Your satellite tracking list
Your tracking list is empty




NASA's NSSDC Master Catalog

Two Line Element Set (TLE):
1 52830U 22062A   23085.05168025  .00000837  00000-0  70721-4 0  9994
2 52830  53.2171 200.8071 0001471  71.1881 288.9271 15.08824398 43299
Source of the keplerian elements: AFSPC